NOAA 16 DEB

Satellite information

Favourite Embed

Satellite Type and Status

DEBRISIN ORBIT

Key statistics

Satellite NOAA 16 DEB at a glance.

Uptime

8995

Days in orbit

Revolutions

≈ 14.2

Per day

Orbit

SSO

Sun Synchronous Orbit

Inclination

98.7

Latest

Satellite identification and parameters

Extended collection of information and parameters for NOAA 16 DEB.

Object identification

Identified? True

Debris? True

Object name: NOAA 16 DEB

International designator: 2000-055PK

Object number (NORAD): 41705

Object ID (CCSDS): 41705

Country: UNITED STATES OF AMERICA (US)

Current information (Y/N): Y

RCS size: SMALL

Orbital parameters

Period: 101.353 minutes

Inclination: 98.6564 deg

SMA: 7200.873 km

Apoapsis: 832.77 km

Periapsis: 812.707 km

RAAN: 202.6011 deg

Eccentricy: 0.0013931

Argument of periapsis: 358.0491 deg

Mean anomaly: 2.063 deg

Mean motion: 14.20774047 rev/day

Mean motion (dot): 0.00001329 rev/day2

B* drag term: 0.00063539 1/REarth

Two-line elements (TLE)

Creation date: May 8, 2025, 3:01 a.m.

Reference frame: TEME

Reference center: EARTH

Epoch: May 7, 2025, 10:30 p.m. UTC

TLE line 0: 0 NOAA 16 DEB

TLE line 1: 1 41705U 00055PK 25127.93772265 .00001329 00000-0 63539-3 0 9999

TLE line 2: 2 41705 98.6564 202.6011 0013931 358.0491 2.0630 14.20774047468067

Live tracking on map

Real-time ground track for satellite NOAA 16 DEB.

In-orbit conjunctions

A list of the most updated potential collisions computed for object NOAA 16 DEB.

Target Orbit TCA Probability of collision Miss distance Type
CZ-6A DEB LEO 2025-02-16 01:32:41 0.0002678071 884.0 (m) DEBRIS
FENGYUN 1C DEB SSO 2024-12-15 21:00:56 0.0001934109 172.0 (m) DEBRIS
SL-16 R/B LEO 2024-09-27 14:15:35 0.0001186864 842.0 (m) ROCKET BODY

Associated space launch

The NOAA K, L and M POES satellites begin the fifth generation of improved environmental monitoring in support of NOAA missions. The instrument payload has significant improvements and additions/deletions. The instrument changes have effected the spacecraft subsystems and data formats.

NOAA 16 DEB was lifted into orbit during the mission ‘Titan II SLV | NOAA 16’, on board a Titan II SLV space rocket.

The launch took place on Sept. 21, 2000, 10:22 a.m. from Space Launch Complex 4W.

For more information about the launch, click the button.

Launch to space Titan II SLV | NOAA 16
Titan II SLV | NOAA 16

Agency: N/A

Status: Launch Successful

Launch date: Sept. 21, 2000, 10:22 a.m. UTC

Rocket: Titan II SLV

Launch pad: Space Launch Complex 4W

Location: Vandenberg SFB, CA, USA

...

Latest news about this satellite

There are no fresh news available about this satellite. Check back as we update our databases every day.


Newsletter sign-up

Weekly statistics, charts and insights to help you stay on top of the space industry.